Regional Weather Roundup
Issued by NWS

Home | Current Version | Previous Version | Graphics & Text | Print | Product List | Glossary On
Versions: 1 2 3 4 5 6 7 8 9 10 11 12 13 14 15 16 17 18 19 20 21 22 23 24 25 26 27 28 29 30 31 32 33 34 35 36 37 38 39 40 41 42 43 44 45 46 47 48 49 50
000
ASUS43 KDTX 261401
RWRMI
MICHIGAN HOURLY REGIONAL WEATHER ROUNDUP
NATIONAL WEATHER SERVICE DETROIT/PONTIAC MI
900 AM EST MON JAN 26 2015

NOTE: "FAIR" INDICATES FEW OR NO CLOUDS BELOW 12,000 FEET WITH NO
SIGNIFICANT WEATHER AND/OR OBSTRUCTION TO VISIBILITY.

MIZ047>049-052>055-059>063-066>070-074>076-081>083-261500-
SOUTHEAST LOWER MICHIGAN

CITY           SKY/WX    TMP DP  RH WIND       PRES   REMARKS
ADRIAN         CLEAR     11   6  81 N10       29.95R WCI  -3
ALMA           CLEAR      7   5  92 CALM      29.99S
ANN ARBOR      CLEAR     13   6  74 N10       29.94R WCI   0
BAD AXE        FLURRIES  -1  -4  88 CALM      29.98S
CARO           CLEAR     11   8  85 CALM      29.98S
DETROIT CITY   CLEAR     15   6  67 N8        29.95R WCI   4
DETROIT        PTCLDY    14   6  70 N7        29.96R WCI   4
FLINT          CLEAR     13   7  77 N3        29.97S
GROSSE ILE     SUNNY     12   7  79 N7        29.94R WCI   2
HILLSDALE      CLEAR      8   6  90 CALM      29.91R
HOWELL         CLEAR      9   7  92 N5        29.94S WCI   1

CITY           SKY/WX    TMP DP  RH WIND       PRES   REMARKS
JACKSON        CLEAR     11   7  84 N5        29.94R WCI   3
LAMBERTVILLE   MOSUNNY   14   5  67 N3        29.94R
LANSING        CLEAR     11   7  84 NE5       29.97S WCI   3
LAPEER         FAIR       2  -1  84 CALM      29.96S
MASON          CLEAR     10   7  88 N3        29.95S
MONROE         SUNNY     12   7  79 N8        29.93R WCI   1
MT. CLEMENS    PTCLDY    11   6  81 N10       29.93R WCI  -2
PONTIAC        PTCLDY    10   5  80 N6        29.93R WCI   0
PORT HOPE        N/A     19  10  68 E8        29.98R WCI   9
PORT HURON     PTCLDY    14   9  79 N5        29.96R WCI   6
TRI CITIES     CLEAR     10   5  80 N3        29.99F
TROY           CLEAR     14   8  75 N6        29.97R WCI   5
SAGINAW HB     CLEAR     12   9  85 N3        29.99S
$$
MIZ043>046-050>051-056>058-064>065-071>073-077>080-261500-
SOUTHWEST LOWER MICHIGAN

CITY           SKY/WX    TMP DP  RH WIND       PRES   REMARKS
BATTLE CREEK   CLEAR     12   6  77 NE3       29.95R
BENTON HARBOR  PTCLDY    11   9  92 E5        29.96F WCI   3
BIG RAPIDS     PTCLDY     2  -1  88 CALM      29.95F
COLDWATER      CLEAR      8   6  89 MISG      29.94R
FREMONT        CLOUDY     2  -2  83 CALM      29.97S
HOLLAND        PTCLDY    13   7  77 E5        29.98S WCI   5
GRAND RAPIDS   MOCLDY     9   5  84 E6        29.96F WCI  -1
IONIA          FAIR      10   8  89 NE3       29.96S
KALAMAZOO      PTCLDY    11   8  88 CALM      29.96R
LUDINGTON      PTCLDY     8   3  80 E3        29.99S
MARSHALL       CLEAR     10   7  88 CALM      29.94S
MOUNT PLEASANT PTCLDY     5   2  88 CALM      29.98R
MUSKEGON       MOCLDY    10   5  80 E3        29.99S
SOUTH HAVEN    PTCLDY    13  10  86 E3        29.97S
$$
MIZ016>042-261500-
NORTHERN LOWER MICHIGAN

CITY           SKY/WX    TMP DP  RH WIND       PRES   REMARKS
ALPENA         LGT SNOW   1  -3  83 CALM      30.01S FOG
BEAVER ISLAND  PTCLDY     5   3  90 CALM      29.98S
BELLAIRE       PTCLDY    -3  -8  82 CALM      30.01S
CADILLAC       PTCLDY    -1  -8  73 CALM      29.92S
CHARLEVOIX     PTCLDY     0  -3  86 CALM      30.01F
FRANKFORT      PTCLDY     4   1  86 CALM      29.98S
GAYLORD        MOCLDY    -9 -12  87 CALM      29.93S
GRAYLING       LGT SNOW -10 -16  73 CALM      29.96S
HARBOR SPRINGS PTCLDY    -5  -9  83 E7        29.99S WCI -19
HOUGHTON LAKE  PTCLDY    -5  -9  83 CALM      29.95S
MANISTEE       PTCLDY     1  -2  85 E5        29.98S WCI  -8
OSCODA         MOCLDY    13  10  85 CALM      29.99F
PELLSTON       PTCLDY   -12 -15  86 CALM      30.01S
ROGERS CITY    PTCLDY     4   2  91 CALM      30.01F
TRAVERSE CITY  MOCLDY     2  -3  80 CALM      29.99S
$$
MIZ007>008-015-261500-
EASTERN UPPER MICHIGAN

CITY           SKY/WX    TMP DP  RH WIND       PRES   REMARKS
KINROSS        PTCLDY    -2  -4  92 E6        30.00F WCI -14
MACKINAC ISLAN PTCLDY    10   4  78 S3        30.00R
NEWBERRY       PTCLDY    -3  -5  90 CALM      29.96S
S. S. MARIE    LGT SNOW   0  -5  79 E5        30.02S WCI -10
MUNISING         N/A      8   3  80 S6        29.92F WCI  -2
$$
MIZ004>006-011>014-085-261500-
CENTRAL UPPER MICHIGAN

CITY           SKY/WX    TMP DP  RH WIND       PRES   REMARKS
MANISTIQUE     CLOUDY    19  10  68 S9        29.95S WCI   9
ESCANABA       CLOUDY     7   3  85 CALM      29.92F
MENOMINEE      CLOUDY    10   7  85 CALM      29.91F
SAWYER-GWINN   CLOUDY     9   5  85 S5        29.85F WCI   0
$$
MIZ001>003-009>011-084-261500-
WESTERN UPPER MICHIGAN

CITY           SKY/WX    TMP DP  RH WIND       PRES   REMARKS
IRON MOUNTAIN  CLOUDY    10   4  76 SE7       29.84F WCI  -1
HOUGHTON       CLOUDY    12   5  73 SE7       29.77F WCI   1
COPPER HARBOR    N/A     18   9  68 CALM      29.82F
IRONWOOD       CLOUDY    18  12  79 SE7       29.67F WCI   8
$$

ABBREVIATIONS USED IN REMARKS
   TC - TEMPERATURE IN CELSIUS
  WCI - WIND CHILL INDEX
   HX - HEAT INDEX
  VSB - VISIBILITY




USA.gov is the U.S. government's official web portal to all federal, state and local government web resources and services.